Track STARLINK-3321 now! 10-day predictions STARLINK-3321 is classified as:
1 50803U 22001A 22175.17789482 .00000060 00000-0 21930-4 0 9999 2 50803 53.2177 129.7498 0002836 53.9261 306.1994 15.08835999 25925